FENGYUN 1C DEB

Satellite information

Favourite Embed

Satellite Type and Status

DEBRISIN ORBIT

Key statistics

Satellite FENGYUN 1C DEB at a glance.

Uptime

9497

Days in orbit

Revolutions

≈ 13.9

Per day

Orbit

SSO

Sun Synchronous Orbit

Inclination

98.4

Latest

Satellite identification and parameters

Extended collection of information and parameters for FENGYUN 1C DEB.

Object identification

Identified? True

Debris? True

Object name: FENGYUN 1C DEB

International designator: 1999-025ABJ

Object number (NORAD): 30347

Object ID (CCSDS): 30347

Country: PEOPLES REPUBLIC OF CHINA (PRC)

Current information (Y/N): Y

RCS size: SMALL

Orbital parameters

Period: 103.4 minutes

Inclination: 98.39 deg

SMA: 7297.498 km

Apoapsis: 1028.157 km

Periapsis: 810.569 km

RAAN: 333.8003 deg

Eccentricy: 0.0149084

Argument of periapsis: 277.4522 deg

Mean anomaly: 136.4864 deg

Mean motion: 13.92649424 rev/day

Mean motion (dot): 0.00000135 rev/day2

B* drag term: 0.00012353 1/REarth

Two-line elements (TLE)

Creation date: May 10, 2025, 2:32 a.m.

Reference frame: TEME

Reference center: EARTH

Epoch: May 9, 2025, 12:51 p.m. UTC

TLE line 0: 0 FENGYUN 1C DEB

TLE line 1: 1 30347U 99025ABJ 25129.53601300 .00000135 00000-0 12353-3 0 9995

TLE line 2: 2 30347 98.3900 333.8003 0149084 277.4522 136.4864 13.92649424929379

Live tracking on map

Real-time ground track for satellite FENGYUN 1C DEB.

In-orbit conjunctions

A list of the most updated potential collisions computed for object FENGYUN 1C DEB.

Target Orbit TCA Probability of collision Miss distance Type
COSMOS 1655 LEO 2024-11-25 00:52:21 0.0006246222 187.0 (m) PAYLOAD

Associated space launch

Chinese polar orbiting meteorological satellite

FENGYUN 1C DEB was lifted into orbit during the mission ‘Long March 4B | Feng Yun 1C’, on board a Long March 4B space rocket.

The launch took place on May 10, 1999, 1:33 a.m. from Launch Complex 7.

For more information about the launch, click the button.

Launch to space Long March 4B | Feng Yun 1C
Long March 4B | Feng Yun 1C

Agency: N/A

Status: Launch Successful

Launch date: May 10, 1999, 1:33 a.m. UTC

Rocket: Long March 4B

Launch pad: Launch Complex 7

Location: Taiyuan Satellite Launch Center, People's Republic of China

...

Latest news about this satellite

There are no fresh news available about this satellite. Check back as we update our databases every day.


Newsletter sign-up

Weekly statistics, charts and insights to help you stay on top of the space industry.